Find Starlink 37967

NORAD ID: 100479 Int'l Des: 2026-196 Owner: SPXS Country: US Constellation: starlink operational

当前视图

正在加载3D地球...

About Starlink 37967

Starlink 37967 (NORAD 100479) is a starlink constellation satellite launched Aug 25, 2026 by SPXS of US. with a mass of 575.00 kg.

即将过境

Passes for default location (London). Set your location on the main map for personalized predictions.

高度历史

Loading altitude history...

两行轨道根数

1 A0479U 26196G 26256.57866985 -.00590772 00000-0 -40757-2 0 9996
2 A0479 53.1590 276.2105 0001087 39.7759 320.3341 15.75515344 4262
Epoch: Sep 13, 2026 • Age: 168 hours

当前状态

高度 368.3 km
远地点 / 近地点 N/A
速度 7.69 km/s
星下点 42.16°N, 74.3°E
发射日期 Aug 25, 2026
运行时间 26 days
类型 internet

技术详情

分类 Payload
质量 575.00 kg
干质量 530.00 kg
长度 0.30 m
跨度 29.00 m
形状 ? Box + pan
制造商 SPXS
平台类型 Starlink V2MO
阶段状态 In Orbit
所有者/国家 SPXS/US

Most Searched